Regional Weather Roundup
Issued by NWS

Home | Current Version | Previous Version | Graphics & Text | Print | Product List | Glossary Off
Versions: 1 2 3 4 5 6 7 8 9 10 11 12 13 14 15 16 17 18 19 20 21 22 23 24 25 26 27 28 29 30 31 32 33 34 35 36 37 38 39 40 41 42 43 44 45 46 47 48 49 50

000
ASUS43 KMKX 300011
RWRWI

WISCONSIN REGIONAL WEATHER ROUNDUP
NATIONAL WEATHER SERVICE MILWAUKEE/SULLIVAN WI
700 PM CDT FRI APR 29 2016

NOTE: "FAIR" INDICATES FEW OR NO CLOUDS BELOW 12,000 FEET WITH NO
SIGNIFICANT WEATHER AND/OR OBSTRUCTIONS TO VISIBILITY.

WIZ001-002-006>008-014>016-023>028-300100-
NORTHWEST WISCONSIN

CITY           SKY/WX    TMP DP  RH WIND       PRES   REMARKS
SUPERIOR ARPT  SUNNY     42  32  66 NE9       30.20S
6HR MIN TEMP:  42; 6HR MAX TEMP:  51;

ASHLAND        SUNNY     47  31  53 NE12      30.20S
6HR MIN TEMP:  47; 6HR MAX TEMP:  55;

HAYWARD        SUNNY     52  29  41 NE12      30.15R
6HR MIN TEMP:  52; 6HR MAX TEMP:  56;

SIREN          SUNNY     58  29  33 E7        30.13R
6HR MIN TEMP:  55; 6HR MAX TEMP:  60;

CUMBERLAND     MOSUNNY   55  30  38 N5        30.11S
RICE LAKE      CLOUDY    58  31  36 N9        30.13R
6HR MIN TEMP:  55; 6HR MAX TEMP:  61;

CHETEK         MOSUNNY   57  38  48 SE7       30.11S
6HR MIN TEMP:  55; 6HR MAX TEMP:  61;

LADYSMITH      CLOUDY    56  38  49 S5        30.13R
6HR MIN TEMP:  54; 6HR MAX TEMP:  62;

EAU CLAIRE     SUNNY     56  38  50 S3        30.11S
6HR MIN TEMP:  53; 6HR MAX TEMP:  58;

MENOMONIE      SUNNY     59  39  46 S3        30.11S
6HR MIN TEMP:  56; 6HR MAX TEMP:  62; 6HR PCP:  0.02;

NEW RICHMOND   SUNNY     57  37  46 S7        30.11S
6HR MIN TEMP:  53; 6HR MAX TEMP:  60;

OSCEOLA        SUNNY     59  32  35 E5        30.13S
6HR MIN TEMP:  54; 6HR MAX TEMP:  61;

$$

WIZ003>005-009-010-017-018-300100-
NORTH CENTRAL WISCONSIN

CITY           SKY/WX    TMP DP  RH WIND       PRES   REMARKS
MANITOWISH WTR PTSUNNY   51  31  46 N7        30.13R
6HR MIN TEMP:  51; 6HR MAX TEMP:  58;

ARBOR VITAE    CLOUDY    57  35  43 SE5       30.13R
6HR MIN TEMP:  52; 6HR MAX TEMP:  57;

WOODRUFF       CLOUDY    57  35  43 SE5       30.13R
6HR MIN TEMP:  52; 6HR MAX TEMP:  57;

RHINELANDER    CLOUDY    55  30  38 N5        30.12R
6HR MIN TEMP:  51; 6HR MAX TEMP:  57;

EAGLE RIVER    CLOUDY    54  28  37 N3        30.13R
LAND O LAKES   CLOUDY    55  28  36 CALM      30.14R
6HR MIN TEMP:  51; 6HR MAX TEMP:  57;

PHILLIPS       CLOUDY    54  36  49 CALM      30.11S
6HR MIN TEMP:  52; 6HR MAX TEMP:  60;

TOMAHAWK       CLOUDY    54  33  46 NW3       30.12S
6HR MIN TEMP:  50; 6HR MAX TEMP:  56;

MEDFORD        SUNNY     52  39  59 S7        30.11S
6HR MIN TEMP:  49; 6HR MAX TEMP:  54;

MERRILL        PTCLDY    54  36  49 SW5       30.13R
$$

WIZ029-030-035-036-043>047-300100-
CENTRAL WISCONSIN

CITY           SKY/WX    TMP DP  RH WIND       PRES   REMARKS
WAUSAU         PTCLDY    57  32  38 SE6       30.11R
6HR MIN TEMP:  53; 6HR MAX TEMP:  58; 6HR PCP: TRACE;

MOSINEE        MOCLDY    54  32  43 E6        30.13S
MARSHFIELD     SUNNY     56  35  45 E6        30.11S
6HR MIN TEMP:  51; 6HR MAX TEMP:  57;

STEVENS POINT  PTCLDY    52  33  48 E7        30.13R
6HR MIN TEMP:  50; 6HR MAX TEMP:  54;

WAUPACA        CLEAR     56  30  37 NE6       30.13S
6HR MIN TEMP:  55; 6HR MAX TEMP:  58;

WAUTOMA        CLEAR     55  33  43 E6        30.13R
6HR MIN TEMP:  52; 6HR MAX TEMP:  57;

WISC RAPIDS    CLEAR     55  33  43 SE8       30.13R
6HR MIN TEMP:  51; 6HR MAX TEMP:  58;

CAMP DOUGLAS   CLOUDY    53  42  66 E3        30.11R
6HR MIN TEMP:  49; 6HR MAX TEMP:  56;

$$

WIZ011>013-019>022-031-037>040-048>050-300100-
NORTHEAST WISCONSIN

CITY           SKY/WX    TMP DP  RH WIND       PRES   REMARKS
ANTIGO         MOCLDY    52  33  49 SE7       30.13R
6HR MIN TEMP:  52; 6HR MAX TEMP:  56;

SHAWANO        CLOUDY    54  33  43 E6        30.14F
6HR MIN TEMP:  54; 6HR MAX TEMP:  56;

OCONTO         CLEAR     50  28  42 NE3       30.15S
6HR MIN TEMP:  48; 6HR MAX TEMP:  53;

STURGEON BAY   CLEAR     50  28  43 NW7       30.17R
6HR MIN TEMP:  48; 6HR MAX TEMP:  54;

GREEN BAY      CLEAR     53  31  42 NE8       30.14S
6HR MIN TEMP:  52; 6HR MAX TEMP:  56;

MANITOWOC      CLEAR     50  26  39 MISG      30.16R
6HR MIN TEMP:  49; 6HR MAX TEMP:  53;

APPLETON       PTCLDY    54  28  37 NE10      30.12
CLINTONVILLE   CLEAR     54  32  43 NE6       30.13F
OSHKOSH        CLEAR     53  31  42 NE5       30.13S
6HR MIN TEMP:  51; 6HR MAX TEMP:  55;

$$

WIZ032>034-041-042-053>061-300100-
SOUTHWEST WISCONSIN

CITY           SKY/WX    TMP DP  RH WIND       PRES   REMARKS
LA CROSSE      CLOUDY    53  38  56 VRB5      30.13R
6HR MIN TEMP:  50; 6HR MAX TEMP:  55;

SPARTA         CLOUDY    52  40  62 CALM      30.13R
6HR MIN TEMP:  49; 6HR MAX TEMP:  53;

VIROQUA        CLOUDY    49  37  62 CALM      30.11F
6HR MIN TEMP:  47; 6HR MAX TEMP:  50;

BOSCOBEL       CLOUDY    53  38  56 CALM      30.12S
6HR MIN TEMP:  52; 6HR MAX TEMP:  54;

PRAIRIE DU CHI CLOUDY    50  36  58 N5        30.12R
6HR MIN TEMP:  50; 6HR MAX TEMP:  52;

PLATTEVILLE    CLOUDY    49  42  76 E5        30.11S
6HR MIN TEMP:  47; 6HR MAX TEMP:  49;

$$

WIZ056-057-062-063-064-067-068-300100-
SOUTH CENTRAL WISCONSIN

CITY           SKY/WX    TMP DP  RH WIND       PRES   REMARKS
REEDSBURG      CLOUDY    52  38  59 E7        30.12R
6HR MIN TEMP:  47; 6HR MAX TEMP:  54;

BARABOO/DELLS  CLOUDY    51  37  57 E6        30.12R
6HR MIN TEMP:  48; 6HR MAX TEMP:  55;

LONE ROCK      CLOUDY    51  40  65 SE5       30.12S
6HR MIN TEMP:  50; 6HR MAX TEMP:  53;

MINERAL POINT  CLOUDY    50  41  71 E5        30.11R
MADISON        PTCLDY    51  38  60 NE8       30.10F
6HR MIN TEMP:  49; 6HR MAX TEMP:  53;

MIDDLETON      CLEAR     52  40  64 CALM      30.10F
6HR MIN TEMP:  49; 6HR MAX TEMP:  53;

WATERTOWN      CLEAR     49  34  54 E6        30.11S
6HR MIN TEMP:  47; 6HR MAX TEMP:  53;

MONROE         MOCLDY    46  37  71 CALM      30.10S
JANESVILLE     MOCLDY    52  39  62 E6        30.11R
$$

WIZ051-052-058>065-066-070>072-300100-
SOUTHEAST WISCONSIN

CITY           SKY/WX    TMP DP  RH WIND       PRES   REMARKS
MILWAUKEE      MOCLDY    43  35  73 NE7       30.14S
6HR MIN TEMP:  43; 6HR MAX TEMP:  47;

WAUKESHA       CLEAR     46  34  61 NE8       30.13F
MILWAUKEE/TIMM CLOUDY    46  32  57 E6        30.14S
RACINE         PTCLDY    43  35  73 NE12      30.14F
6HR MIN TEMP:  43; 6HR MAX TEMP:  48;

BURLINGTON     CLEAR     47  36  65 NE8       30.11F
6HR MIN TEMP:  44; 6HR MAX TEMP:  48;

KENOSHA        CLEAR     46  37  71 NE10      30.12F
6HR MIN TEMP:  46; 6HR MAX TEMP:  49;

FOND DU LAC    CLEAR     53  30  41 E10       30.13S
6HR MIN TEMP:  50; 6HR MAX TEMP:  57;

SHEBOYGAN      PTCLDY    47  29  49 E8        30.15S
6HR MIN TEMP:  47; 6HR MAX TEMP:  53;

WEST BEND      MOCLDY    46  34  61 E7        30.15R
JUNEAU         PTCLDY    50  32  49 E8        30.13R
6HR MIN TEMP:  46; 6HR MAX TEMP:  54;

$$

LSZ147-162-300100-
LAKE SUPERIOR

STATION/POSITION TIME  TEMP    WIND        PRES    WAVE
                       AIR SEA DIR/SP/G            HT/PER
                 (UTC) (F)     (DEG/KT/KT) (MB)    (FT/S)
W MID LAKE BUOY  2350   39 37  340/  6/  8 1023.6S   1/ 4
DEVILS ISLAND    0000   38      50/  5/  6 1024.2R
SAXON HARBOR     2340   41      10/  3/  4 1022.7R
$$

LMZ867-665-643>646-300100-
LAKE MICHIGAN

STATION/POSITION TIME  TEMP    WIND        PRES    WAVE
                       AIR SEA DIR/SP/G            HT/PER
                 (UTC) (F)     (DEG/KT/KT) (MB)    (FT/S)
CHAMBERS ISLAND  2300   49      CALC1F1C2F2C3F3C4F4C5F5C6F6C7F7C8M1C9M2Ca!



USA.gov is the U.S. government's official web portal to all federal, state and local government web resources and services.